<?xml version="1.0" encoding="UTF-8"?>
<gpx version="1.1" creator="https://www.youtrack.es" xsi:schemaLocation="http://www.topografix.com/GPX/1/1 http://www.topografix.com/GPX/1/1/gpx.xsd http://www.garmin.com/xmlschemas/GpxExtensions/v3 http://www.garmin.com/xmlschemas/GpxExtensionsv3.xsd http://www.garmin.com/xmlschemas/TrackPointExtension/v1 http://www.garmin.com/xmlschemas/TrackPointExtensionv1.xsd" xmlns:gpxtpx="http://www.garmin.com/xmlschemas/TrackPointExtension/v1" xmlns:gpxx="http://www.garmin.com/xmlschemas/GpxExtensions/v3" xmlns:xsi="http://www.w3.org/2001/XMLSchema-instance">
  <metadata>
    <link href="https://www.youtrack.es">
      <text>YouTrack.es</text>
    </link>
    <time>2026-05-08T02:47:15Z</time>
  </metadata>
  <trk>
    <src>https://www.youtrack.es</src>
    <link href="https://www.youtrack.es/ruta/15274-denia-sax">
      <text>YouTrack.es</text>
    </link>
    <trkseg>
      <trkpt lat="38.84569593589471" lon="0.1149761524567139">
        <time>2020-08-22T08:47:30Z</time>
      </trkpt>
      <trkpt lat="38.84715414899362" lon="0.1120066902531858">
        <time>2020-08-22T08:47:30Z</time>
      </trkpt>
      <trkpt lat="38.84738863564533" lon="0.1107281193063892">
        <time>2020-08-22T08:47:30Z</time>
      </trkpt>
      <trkpt lat="38.84718325052138" lon="0.1090089650955206">
        <time>2020-08-22T08:47:30Z</time>
      </trkpt>
      <trkpt lat="38.84640736720925" lon="0.1077522968175026">
        <time>2020-08-22T08:47:30Z</time>
      </trkpt>
      <trkpt lat="38.84148967712418" lon="0.09919717607771439">
        <time>2020-08-22T08:47:30Z</time>
      </trkpt>
      <trkpt lat="38.83956518260045" lon="0.09941616057193237">
        <time>2020-08-22T08:47:30Z</time>
      </trkpt>
      <trkpt lat="38.83930462425905" lon="0.09925964495538508">
        <time>2020-08-22T08:47:30Z</time>
      </trkpt>
      <trkpt lat="38.83886944294745" lon="0.1001046328079735">
        <time>2020-08-22T08:47:30Z</time>
      </trkpt>
      <trkpt lat="38.8369610078838" lon="0.09544397169758856">
        <time>2020-08-22T08:47:30Z</time>
      </trkpt>
      <trkpt lat="38.8347783010474" lon="0.09594547671268439">
        <time>2020-08-22T08:47:30Z</time>
      </trkpt>
      <trkpt lat="38.83473271729198" lon="0.09577620054110447">
        <time>2020-08-22T08:47:30Z</time>
      </trkpt>
      <trkpt lat="38.83444812975938" lon="0.09219355904843241">
        <time>2020-08-22T08:47:30Z</time>
      </trkpt>
      <trkpt lat="38.83385227081978" lon="0.08886399147060464">
        <time>2020-08-22T08:47:30Z</time>
      </trkpt>
      <trkpt lat="38.83304785370025" lon="0.08595941494009107">
        <time>2020-08-22T08:47:30Z</time>
      </trkpt>
      <trkpt lat="38.83067496210525" lon="0.08697834664486148">
        <time>2020-08-22T08:47:30Z</time>
      </trkpt>
      <trkpt lat="38.83053150536229" lon="0.08687563890229066">
        <time>2020-08-22T08:47:30Z</time>
      </trkpt>
      <trkpt lat="38.8303181633004" lon="0.08559294235511272">
        <time>2020-08-22T08:47:30Z</time>
      </trkpt>
      <trkpt lat="38.8284888789005" lon="0.08573360048385714">
        <time>2020-08-22T08:47:30Z</time>
      </trkpt>
      <trkpt lat="38.82772277360552" lon="0.08423998061810822">
        <time>2020-08-22T08:47:30Z</time>
      </trkpt>
      <trkpt lat="38.82700921905982" lon="0.08220796880721304">
        <time>2020-08-22T08:47:30Z</time>
      </trkpt>
      <trkpt lat="38.82624952768117" lon="0.07793178269784429">
        <time>2020-08-22T08:47:30Z</time>
      </trkpt>
      <trkpt lat="38.82562594990151" lon="0.07522714212332193">
        <time>2020-08-22T08:47:30Z</time>
      </trkpt>
      <trkpt lat="38.82506142302326" lon="0.0730495020323918">
        <time>2020-08-22T08:47:30Z</time>
      </trkpt>
      <trkpt lat="38.82405191699175" lon="0.072952860086406">
        <time>2020-08-22T08:47:30Z</time>
      </trkpt>
      <trkpt lat="38.82451257940827" lon="0.06999139920296438">
        <time>2020-08-22T08:47:30Z</time>
      </trkpt>
      <trkpt lat="38.8246796909489" lon="0.06529997271041754">
        <time>2020-08-22T08:47:30Z</time>
      </trkpt>
      <trkpt lat="38.82475062260575" lon="0.06519313510391589">
        <time>2020-08-22T08:47:30Z</time>
      </trkpt>
      <trkpt lat="38.82437725586036" lon="0.06483573922882124">
        <time>2020-08-22T08:47:30Z</time>
      </trkpt>
      <trkpt lat="38.82264535815359" lon="0.06347340703816373">
        <time>2020-08-22T08:47:30Z</time>
      </trkpt>
      <trkpt lat="38.82285203222855" lon="0.06276975739229362">
        <time>2020-08-22T08:47:30Z</time>
      </trkpt>
      <trkpt lat="38.82202637843539" lon="0.06233911277666593">
        <time>2020-08-22T08:47:30Z</time>
      </trkpt>
      <trkpt lat="38.82075221028428" lon="0.06110411108667169">
        <time>2020-08-22T08:47:30Z</time>
      </trkpt>
      <trkpt lat="38.81988433755853" lon="0.06078310318275326">
        <time>2020-08-22T08:47:30Z</time>
      </trkpt>
      <trkpt lat="38.81820086935537" lon="0.06126562998209018">
        <time>2020-08-22T08:47:30Z</time>
      </trkpt>
      <trkpt lat="38.8156770404699" lon="0.06127534093976816">
        <time>2020-08-22T08:47:30Z</time>
      </trkpt>
      <trkpt lat="38.81444468744205" lon="0.06164066687790903">
        <time>2020-08-22T08:47:30Z</time>
      </trkpt>
      <trkpt lat="38.81220913491789" lon="0.0637182233185718">
        <time>2020-08-22T08:47:30Z</time>
      </trkpt>
      <trkpt lat="38.80849599684864" lon="0.06546090217976808">
        <time>2020-08-22T08:47:30Z</time>
      </trkpt>
      <trkpt lat="38.80685659644013" lon="0.06624621497643979">
        <time>2020-08-22T08:47:30Z</time>
      </trkpt>
      <trkpt lat="38.80500239785863" lon="0.06845410675148766">
        <time>2020-08-22T08:47:30Z</time>
      </trkpt>
      <trkpt lat="38.80270008751658" lon="0.06959309948567638">
        <time>2020-08-22T08:47:30Z</time>
      </trkpt>
      <trkpt lat="38.79975648278226" lon="0.07136291758319091">
        <time>2020-08-22T08:47:30Z</time>
      </trkpt>
      <trkpt lat="38.79931595564724" lon="0.07115633216427941">
        <time>2020-08-22T08:47:30Z</time>
      </trkpt>
      <trkpt lat="38.79903826859825" lon="0.07141135088100325">
        <time>2020-08-22T08:47:30Z</time>
      </trkpt>
      <trkpt lat="38.79835326771976" lon="0.07161591277334844">
        <time>2020-08-22T08:47:30Z</time>
      </trkpt>
      <trkpt lat="38.79707795633677" lon="0.07181308826770039">
        <time>2020-08-22T08:47:30Z</time>
      </trkpt>
      <trkpt lat="38.79438615645316" lon="0.0730021111007928">
        <time>2020-08-22T08:47:30Z</time>
      </trkpt>
      <trkpt lat="38.79267772862955" lon="0.07266775265400316">
        <time>2020-08-22T08:47:30Z</time>
      </trkpt>
      <trkpt lat="38.79255535753255" lon="0.07246026842966158">
        <time>2020-08-22T08:47:30Z</time>
      </trkpt>
      <trkpt lat="38.79061461331072" lon="0.07214787260015676">
        <time>2020-08-22T08:47:30Z</time>
      </trkpt>
      <trkpt lat="38.7875682443219" lon="0.07427410968741333">
        <time>2020-08-22T08:47:30Z</time>
      </trkpt>
      <trkpt lat="38.78704436137946" lon="0.07373533068781857">
        <time>2020-08-22T08:47:30Z</time>
      </trkpt>
      <trkpt lat="38.78589580541599" lon="0.0729563506060793">
        <time>2020-08-22T08:47:30Z</time>
      </trkpt>
      <trkpt lat="38.78499714784125" lon="0.07486218981960446">
        <time>2020-08-22T08:47:30Z</time>
      </trkpt>
      <trkpt lat="38.784626461088" lon="0.07653277641028744">
        <time>2020-08-22T08:47:30Z</time>
      </trkpt>
      <trkpt lat="38.78380944784776" lon="0.07688951076208594">
        <time>2020-08-22T08:47:30Z</time>
      </trkpt>
      <trkpt lat="38.78352177510931" lon="0.07752159983057227">
        <time>2020-08-22T08:47:30Z</time>
      </trkpt>
      <trkpt lat="38.78357609064124" lon="0.07781735521547484">
        <time>2020-08-22T08:47:30Z</time>
      </trkpt>
      <trkpt lat="38.78321545254905" lon="0.07814410701593166">
        <time>2020-08-22T08:47:30Z</time>
      </trkpt>
      <trkpt lat="38.78286222199606" lon="0.07777731159103851">
        <time>2020-08-22T08:47:30Z</time>
      </trkpt>
      <trkpt lat="38.78228736634077" lon="0.07758489144937819">
        <time>2020-08-22T08:47:30Z</time>
      </trkpt>
      <trkpt lat="38.78189438197451" lon="0.07783320545603489">
        <time>2020-08-22T08:47:30Z</time>
      </trkpt>
      <trkpt lat="38.78038173760639" lon="0.07776113696412068">
        <time>2020-08-22T08:47:30Z</time>
      </trkpt>
      <trkpt lat="38.78005305156564" lon="0.07727809750099235">
        <time>2020-08-22T08:47:30Z</time>
      </trkpt>
      <trkpt lat="38.77954643109376" lon="0.07604816318747654">
        <time>2020-08-22T08:47:30Z</time>
      </trkpt>
      <trkpt lat="38.77914663920088" lon="0.07404983385670638">
        <time>2020-08-22T08:47:30Z</time>
      </trkpt>
      <trkpt lat="38.77831033618568" lon="0.07220102711386733">
        <time>2020-08-22T08:47:30Z</time>
      </trkpt>
      <trkpt lat="38.77758569019906" lon="0.07119519411038056">
        <time>2020-08-22T08:47:30Z</time>
      </trkpt>
      <trkpt lat="38.77499040975841" lon="0.06996670358203616">
        <time>2020-08-22T08:47:30Z</time>
      </trkpt>
      <trkpt lat="38.77532852915019" lon="0.06882698151809086">
        <time>2020-08-22T08:47:30Z</time>
      </trkpt>
      <trkpt lat="38.7751993091631" lon="0.06789692537179315">
        <time>2020-08-22T08:47:30Z</time>
      </trkpt>
      <trkpt lat="38.77448858949205" lon="0.06739567720721817">
        <time>2020-08-22T08:47:30Z</time>
      </trkpt>
      <trkpt lat="38.77330410345489" lon="0.06636809980299141">
        <time>2020-08-22T08:47:30Z</time>
      </trkpt>
      <trkpt lat="38.77187194602458" lon="0.06309939337732162">
        <time>2020-08-22T08:47:30Z</time>
      </trkpt>
      <trkpt lat="38.77071686660032" lon="0.06138356852184446">
        <time>2020-08-22T08:47:30Z</time>
      </trkpt>
      <trkpt lat="38.77032061596107" lon="0.05990109815905642">
        <time>2020-08-22T08:47:30Z</time>
      </trkpt>
      <trkpt lat="38.76955618058339" lon="0.05921994633185435">
        <time>2020-08-22T08:47:30Z</time>
      </trkpt>
      <trkpt lat="38.76886751543078" lon="0.05653447081103602">
        <time>2020-08-22T08:47:30Z</time>
      </trkpt>
      <trkpt lat="38.76757502787009" lon="0.05548734397065935">
        <time>2020-08-22T08:47:30Z</time>
      </trkpt>
      <trkpt lat="38.76651963689829" lon="0.0545530341937539">
        <time>2020-08-22T08:47:30Z</time>
      </trkpt>
      <trkpt lat="38.76587377662668" lon="0.05445690973532091">
        <time>2020-08-22T08:47:30Z</time>
      </trkpt>
      <trkpt lat="38.76565350549829" lon="0.0541326070631043">
        <time>2020-08-22T08:47:30Z</time>
      </trkpt>
      <trkpt lat="38.76532236520087" lon="0.05237161781582067">
        <time>2020-08-22T08:47:30Z</time>
      </trkpt>
      <trkpt lat="38.76490003430098" lon="0.05114931027699665">
        <time>2020-08-22T08:47:30Z</time>
      </trkpt>
      <trkpt lat="38.76425800944222" lon="0.04936533112561259">
        <time>2020-08-22T08:47:30Z</time>
      </trkpt>
      <trkpt lat="38.76421701741876" lon="0.04886860722508102">
        <time>2020-08-22T08:47:30Z</time>
      </trkpt>
      <trkpt lat="38.76408043588204" lon="0.0478805368060975">
        <time>2020-08-22T08:47:30Z</time>
      </trkpt>
      <trkpt lat="38.76657155287749" lon="0.05459011921712609"/>
      <trkpt lat="38.7657011959781" lon="0.0544500395473424"/>
      <trkpt lat="38.7648504886541" lon="0.05121937698980839"/>
      <trkpt lat="38.76427227533555" lon="0.04944949386848752"/>
      <trkpt lat="38.76402485528109" lon="0.04778284333082805"/>
      <trkpt lat="38.76267594643303" lon="0.0444063780236803"/>
      <trkpt lat="38.75990013151896" lon="0.04369606309078788"/>
      <trkpt lat="38.75859356378159" lon="0.04223530483930871"/>
      <trkpt lat="38.75888611944394" lon="0.03834346647355158"/>
      <trkpt lat="38.75703377683739" lon="0.03386936876325519"/>
      <trkpt lat="38.75587448188538" lon="0.03351911290853549"/>
      <trkpt lat="38.75496848431622" lon="0.03218060985362259"/>
      <trkpt lat="38.7547606169562" lon="0.03083441040476753"/>
      <trkpt lat="38.75432968485785" lon="0.029890721192114"/>
      <trkpt lat="38.75422215865366" lon="0.0281775730454914"/>
      <trkpt lat="38.7538149746422" lon="0.02629623158489247"/>
      <trkpt lat="38.75315016162581" lon="0.02459334410490621"/>
      <trkpt lat="38.75283623568222" lon="0.0239968809099711"/>
      <trkpt lat="38.75364460337256" lon="0.02294714100536943"/>
      <trkpt lat="38.75339762709822" lon="0.02058482603880751"/>
      <trkpt lat="38.75298438147558" lon="0.02015622450352472"/>
      <trkpt lat="38.75234691456916" lon="0.01900661738712284"/>
      <trkpt lat="38.75160356495323" lon="0.01784227770515345"/>
      <trkpt lat="38.74972367276523" lon="0.01616868970351071"/>
      <trkpt lat="38.74829036703638" lon="0.01382162579034896"/>
      <trkpt lat="38.74807440817747" lon="0.01225633868473741"/>
      <trkpt lat="38.74829543909109" lon="0.01102087273497254"/>
      <trkpt lat="38.74846504037203" lon="0.009821474433635569"/>
      <trkpt lat="38.74826955261835" lon="0.008407603904880823"/>
      <trkpt lat="38.74776866537324" lon="0.007823456078970281"/>
      <trkpt lat="38.74746715174202" lon="0.006440104927700752"/>
      <trkpt lat="38.74790771331552" lon="0.003494115855111612"/>
      <trkpt lat="38.74591600548251" lon="0.00329029894568178"/>
      <trkpt lat="38.74453734060267" lon="0.003730114302835652"/>
      <trkpt lat="38.74362791722746" lon="0.003063062811752282"/>
      <trkpt lat="38.74293920790718" lon="0.003398299687291662"/>
      <trkpt lat="38.74244506418087" lon="0.001030845123402013"/>
      <trkpt lat="38.74176068357398" lon="-0.002858742589840757"/>
      <trkpt lat="38.74173844877762" lon="-0.005902038685968725"/>
      <trkpt lat="38.74198280283874" lon="-0.008165764868803826"/>
      <trkpt lat="38.74271364338747" lon="-0.01088482254113177"/>
      <trkpt lat="38.74267121588859" lon="-0.01332401579463016"/>
      <trkpt lat="38.74282537037372" lon="-0.01437946416266378"/>
      <trkpt lat="38.74353563698673" lon="-0.01648070106220034"/>
      <trkpt lat="38.74522456051576" lon="-0.01671021425821873"/>
      <trkpt lat="38.7454095702611" lon="-0.01792600168297409"/>
      <trkpt lat="38.74516533062326" lon="-0.02111683969951317"/>
      <trkpt lat="38.74564880915108" lon="-0.02274476081170596"/>
      <trkpt lat="38.74647136343322" lon="-0.02527416731325616"/>
      <trkpt lat="38.74665717061551" lon="-0.02678758796388681"/>
      <trkpt lat="38.74732403325081" lon="-0.02854036095916168"/>
      <trkpt lat="38.74751969462614" lon="-0.03000435976220794"/>
      <trkpt lat="38.74796732457504" lon="-0.03193902517682923"/>
      <trkpt lat="38.74791836685172" lon="-0.03335867149470095"/>
      <trkpt lat="38.74934376733784" lon="-0.03622907957411603"/>
      <trkpt lat="38.74978518446289" lon="-0.03793045439712261"/>
      <trkpt lat="38.7509778269531" lon="-0.03916769757664085"/>
      <trkpt lat="38.75117238880534" lon="-0.04002001337031325"/>
      <trkpt lat="38.75195854252299" lon="-0.04178332845072297"/>
      <trkpt lat="38.75125671449689" lon="-0.04221725592327696"/>
      <trkpt lat="38.7521127059613" lon="-0.04362948821716395"/>
      <trkpt lat="38.75236580936599" lon="-0.04510514685962419"/>
      <trkpt lat="38.75321542094905" lon="-0.04571774647510907"/>
      <trkpt lat="38.75403124292362" lon="-0.04654285048128814"/>
      <trkpt lat="38.7540571619179" lon="-0.04704111598738292"/>
      <trkpt lat="38.75426455657927" lon="-0.04836705310833245"/>
      <trkpt lat="38.7542483640675" lon="-0.04902336833980447"/>
      <trkpt lat="38.75391891165484" lon="-0.05030973605221423"/>
      <trkpt lat="38.75448737743179" lon="-0.05050588876844397"/>
      <trkpt lat="38.75569504504203" lon="-0.05150809133609879"/>
      <trkpt lat="38.75530029831528" lon="-0.0525206928231492"/>
      <trkpt lat="38.75521967199833" lon="-0.05483832919949361"/>
      <trkpt lat="38.75500268155741" lon="-0.05579588976246552"/>
      <trkpt lat="38.75564590006497" lon="-0.05673935986092227"/>
      <trkpt lat="38.75664600193288" lon="-0.05965339547437276"/>
      <trkpt lat="38.75758459123421" lon="-0.06198296748332943"/>
      <trkpt lat="38.75882073094568" lon="-0.06520824214797161"/>
      <trkpt lat="38.75808128605718" lon="-0.06563803591826511"/>
      <trkpt lat="38.75697027763373" lon="-0.06693226217734827"/>
      <trkpt lat="38.75834945331605" lon="-0.07115686280017464"/>
      <trkpt lat="38.75846249525813" lon="-0.07303365572969178"/>
      <trkpt lat="38.75910132593383" lon="-0.07450962510511139"/>
      <trkpt lat="38.75914122436784" lon="-0.07520861983420946"/>
      <trkpt lat="38.75912013624436" lon="-0.07637340526718495"/>
      <trkpt lat="38.75937932722616" lon="-0.07690604202219675"/>
      <trkpt lat="38.75941887545445" lon="-0.07771290629784988"/>
      <trkpt lat="38.75956612966117" lon="-0.07788833666224515"/>
      <trkpt lat="38.75972011339723" lon="-0.07832294341303281"/>
      <trkpt lat="38.75976343542749" lon="-0.0790431802984648"/>
      <trkpt lat="38.75979093841549" lon="-0.08126716924283017"/>
      <trkpt lat="38.75989093193601" lon="-0.08215461405290836"/>
      <trkpt lat="38.76022439846252" lon="-0.0822185265044495"/>
      <trkpt lat="38.7601078123626" lon="-0.08264265814455829"/>
      <trkpt lat="38.75992336808976" lon="-0.08290141304870158"/>
      <trkpt lat="38.75993575220559" lon="-0.08307874129619752"/>
      <trkpt lat="38.7599563114999" lon="-0.08322089023656609"/>
      <trkpt lat="38.75967139660312" lon="-0.08353810309904341"/>
      <trkpt lat="38.76040486252827" lon="-0.08502270085755104"/>
      <trkpt lat="38.76019989875016" lon="-0.08523800175297302"/>
      <trkpt lat="38.759382980059" lon="-0.08637865192558825"/>
      <trkpt lat="38.75862597707251" lon="-0.0898261994635674"/>
      <trkpt lat="38.75951960232473" lon="-0.09181422259674221"/>
      <trkpt lat="38.75968212616661" lon="-0.09270543176259749"/>
      <trkpt lat="38.7579851001288" lon="-0.09604429974388262"/>
      <trkpt lat="38.75744594326268" lon="-0.09798631687452986"/>
      <trkpt lat="38.75716074590791" lon="-0.1015265491935491"/>
      <trkpt lat="38.75645491348956" lon="-0.1021921800950065"/>
      <trkpt lat="38.75648267084606" lon="-0.1031056112837736"/>
      <trkpt lat="38.75679036307994" lon="-0.1041854668725017"/>
      <trkpt lat="38.75679724280255" lon="-0.1049945778135886"/>
      <trkpt lat="38.75730576533262" lon="-0.1059578267306582"/>
      <trkpt lat="38.75756830364086" lon="-0.1073685927296997"/>
      <trkpt lat="38.75712537428645" lon="-0.1070607914084087"/>
      <trkpt lat="38.756257016863" lon="-0.1061459544509502"/>
      <trkpt lat="38.75579676912978" lon="-0.1070818116980476"/>
      <trkpt lat="38.75320294432407" lon="-0.1085786132115818"/>
      <trkpt lat="38.75320614925106" lon="-0.1085759214790449">
        <time>2020-08-22T08:47:54Z</time>
      </trkpt>
      <trkpt lat="38.75390806991984" lon="-0.111022188572657">
        <time>2020-08-22T08:47:54Z</time>
      </trkpt>
      <trkpt lat="38.75370565407123" lon="-0.1141534384348852">
        <time>2020-08-22T08:47:54Z</time>
      </trkpt>
      <trkpt lat="38.75471089073261" lon="-0.1175712649679672">
        <time>2020-08-22T08:47:54Z</time>
      </trkpt>
      <trkpt lat="38.75596411348641" lon="-0.1202345680598027">
        <time>2020-08-22T08:47:54Z</time>
      </trkpt>
      <trkpt lat="38.75599797773818" lon="-0.1286438324288097">
        <time>2020-08-22T08:47:54Z</time>
      </trkpt>
      <trkpt lat="38.75547100614234" lon="-0.1337367941578171">
        <time>2020-08-22T08:47:54Z</time>
      </trkpt>
      <trkpt lat="38.75486382936682" lon="-0.1362221758575732">
        <time>2020-08-22T08:47:54Z</time>
      </trkpt>
      <trkpt lat="38.75529229696287" lon="-0.1377026832821893">
        <time>2020-08-22T08:47:54Z</time>
      </trkpt>
      <trkpt lat="38.75606404549118" lon="-0.1389777375313128">
        <time>2020-08-22T08:47:54Z</time>
      </trkpt>
      <trkpt lat="38.7557575297704" lon="-0.1410396929908686">
        <time>2020-08-22T08:47:54Z</time>
      </trkpt>
      <trkpt lat="38.75495899376261" lon="-0.1431354420605646">
        <time>2020-08-22T08:47:54Z</time>
      </trkpt>
      <trkpt lat="38.75411705395662" lon="-0.146564118131125">
        <time>2020-08-22T08:47:54Z</time>
      </trkpt>
      <trkpt lat="38.75349441042231" lon="-0.1541375807599543">
        <time>2020-08-22T08:47:54Z</time>
      </trkpt>
      <trkpt lat="38.7517900019343" lon="-0.1561139575217618">
        <time>2020-08-22T08:47:54Z</time>
      </trkpt>
      <trkpt lat="38.75060302589033" lon="-0.1569761909568623">
        <time>2020-08-22T08:47:54Z</time>
      </trkpt>
      <trkpt lat="38.74952390006062" lon="-0.1581405005206038">
        <time>2020-08-22T08:47:54Z</time>
      </trkpt>
      <trkpt lat="38.74836230504439" lon="-0.1581858798798541">
        <time>2020-08-22T08:47:54Z</time>
      </trkpt>
      <trkpt lat="38.74778923520203" lon="-0.1589708976610937">
        <time>2020-08-22T08:47:54Z</time>
      </trkpt>
      <trkpt lat="38.74723363684009" lon="-0.1596345094784613">
        <time>2020-08-22T08:47:54Z</time>
      </trkpt>
      <trkpt lat="38.74643291967302" lon="-0.1596483308947627">
        <time>2020-08-22T08:47:54Z</time>
      </trkpt>
      <trkpt lat="38.74551688799055" lon="-0.1602090720462845">
        <time>2020-08-22T08:47:54Z</time>
      </trkpt>
      <trkpt lat="38.74423319815975" lon="-0.1600001989529931">
        <time>2020-08-22T08:47:54Z</time>
      </trkpt>
      <trkpt lat="38.74197757723932" lon="-0.1600867470391309">
        <time>2020-08-22T08:47:54Z</time>
      </trkpt>
      <trkpt lat="38.74264627034223" lon="-0.1607737505173268">
        <time>2020-08-22T08:47:54Z</time>
      </trkpt>
      <trkpt lat="38.74324417212872" lon="-0.1609393028501294">
        <time>2020-08-22T08:47:54Z</time>
      </trkpt>
      <trkpt lat="38.74378512540549" lon="-0.1617782938540502">
        <time>2020-08-22T08:47:54Z</time>
      </trkpt>
      <trkpt lat="38.74339619555963" lon="-0.161968680072101">
        <time>2020-08-22T08:47:54Z</time>
      </trkpt>
      <trkpt lat="38.74433222639901" lon="-0.1624892609437312">
        <time>2020-08-22T08:47:54Z</time>
      </trkpt>
      <trkpt lat="38.74350992476221" lon="-0.162948705558954">
        <time>2020-08-22T08:47:54Z</time>
      </trkpt>
      <trkpt lat="38.74485309484299" lon="-0.1636263199766808">
        <time>2020-08-22T08:47:54Z</time>
      </trkpt>
      <trkpt lat="38.74462274578067" lon="-0.1653405806493646">
        <time>2020-08-22T08:47:54Z</time>
      </trkpt>
      <trkpt lat="38.74516073305659" lon="-0.1661427467363097">
        <time>2020-08-22T08:47:54Z</time>
      </trkpt>
      <trkpt lat="38.74584337615247" lon="-0.1660522701494971">
        <time>2020-08-22T08:47:54Z</time>
      </trkpt>
      <trkpt lat="38.74676810352677" lon="-0.1660664875941287">
        <time>2020-08-22T08:47:54Z</time>
      </trkpt>
      <trkpt lat="38.74621972715614" lon="-0.1680496655169805">
        <time>2020-08-22T08:47:54Z</time>
      </trkpt>
      <trkpt lat="38.74495659995286" lon="-0.1688205239184415">
        <time>2020-08-22T08:47:54Z</time>
      </trkpt>
      <trkpt lat="38.74349458706604" lon="-0.1712445615548286">
        <time>2020-08-22T08:47:54Z</time>
      </trkpt>
      <trkpt lat="38.74329428311174" lon="-0.171062594665562">
        <time>2020-08-22T08:47:54Z</time>
      </trkpt>
      <trkpt lat="38.74275015387677" lon="-0.171044745156701">
        <time>2020-08-22T08:47:54Z</time>
      </trkpt>
      <trkpt lat="38.74146212416457" lon="-0.1714726227589503">
        <time>2020-08-22T08:47:54Z</time>
      </trkpt>
      <trkpt lat="38.7398294326903" lon="-0.1725886767695184">
        <time>2020-08-22T08:47:54Z</time>
      </trkpt>
      <trkpt lat="38.73923820009769" lon="-0.1733289878613975">
        <time>2020-08-22T08:47:54Z</time>
      </trkpt>
      <trkpt lat="38.73954096078139" lon="-0.1739803771003456">
        <time>2020-08-22T08:47:54Z</time>
      </trkpt>
      <trkpt lat="38.74001841308675" lon="-0.1745130305007625">
        <time>2020-08-22T08:47:54Z</time>
      </trkpt>
      <trkpt lat="38.74047356128198" lon="-0.1739229738163695">
        <time>2020-08-22T08:47:54Z</time>
      </trkpt>
      <trkpt lat="38.74087928539962" lon="-0.1740572210170155">
        <time>2020-08-22T08:47:54Z</time>
      </trkpt>
      <trkpt lat="38.74094252781642" lon="-0.1746221786693858">
        <time>2020-08-22T08:47:54Z</time>
      </trkpt>
      <trkpt lat="38.74160541609281" lon="-0.1756355108505914">
        <time>2020-08-22T08:47:54Z</time>
      </trkpt>
      <trkpt lat="38.74320291078428" lon="-0.1774979937474297">
        <time>2020-08-22T08:47:54Z</time>
      </trkpt>
      <trkpt lat="38.74266979040522" lon="-0.1796368054802311">
        <time>2020-08-22T08:47:54Z</time>
      </trkpt>
      <trkpt lat="38.74168625648996" lon="-0.1786873441164505">
        <time>2020-08-22T08:47:54Z</time>
      </trkpt>
      <trkpt lat="38.74148796833784" lon="-0.179080200263394">
        <time>2020-08-22T08:47:54Z</time>
      </trkpt>
      <trkpt lat="38.74173119368071" lon="-0.1804117325377841">
        <time>2020-08-22T08:47:54Z</time>
      </trkpt>
      <trkpt lat="38.7418266588657" lon="-0.1815082461237938">
        <time>2020-08-22T08:47:54Z</time>
      </trkpt>
      <trkpt lat="38.74064432970744" lon="-0.1824936372715424">
        <time>2020-08-22T08:47:54Z</time>
      </trkpt>
      <trkpt lat="38.73942708798218" lon="-0.1828513174950019">
        <time>2020-08-22T08:47:54Z</time>
      </trkpt>
      <trkpt lat="38.73933183193637" lon="-0.1821431227893333">
        <time>2020-08-22T08:47:54Z</time>
      </trkpt>
      <trkpt lat="38.73844055127964" lon="-0.1819929649049368">
        <time>2020-08-22T08:47:54Z</time>
      </trkpt>
      <trkpt lat="38.73767296705465" lon="-0.181241877758489">
        <time>2020-08-22T08:47:54Z</time>
      </trkpt>
      <trkpt lat="38.73742759716138" lon="-0.1803573376307155">
        <time>2020-08-22T08:47:54Z</time>
      </trkpt>
      <trkpt lat="38.73616429880968" lon="-0.1799484331364609">
        <time>2020-08-22T08:47:54Z</time>
      </trkpt>
      <trkpt lat="38.735347243989" lon="-0.1805274161943582">
        <time>2020-08-22T08:47:54Z</time>
      </trkpt>
      <trkpt lat="38.73436155138502" lon="-0.1796956708568542">
        <time>2020-08-22T08:47:54Z</time>
      </trkpt>
      <trkpt lat="38.73451722326492" lon="-0.1779097800367369">
        <time>2020-08-22T08:47:54Z</time>
      </trkpt>
      <trkpt lat="38.73529218781591" lon="-0.1775544085520275">
        <time>2020-08-22T08:47:54Z</time>
      </trkpt>
      <trkpt lat="38.73441693482961" lon="-0.176558669204252">
        <time>2020-08-22T08:47:54Z</time>
      </trkpt>
      <trkpt lat="38.73474401451965" lon="-0.1760136840514259">
        <time>2020-08-22T08:47:54Z</time>
      </trkpt>
      <trkpt lat="38.73192648374899" lon="-0.1750357229142141">
        <time>2020-08-22T08:47:54Z</time>
      </trkpt>
      <trkpt lat="38.73160356118406" lon="-0.174801713351127">
        <time>2020-08-22T08:47:54Z</time>
      </trkpt>
      <trkpt lat="38.73171214372339" lon="-0.1720593000008175">
        <time>2020-08-22T08:47:54Z</time>
      </trkpt>
      <trkpt lat="38.72909673927008" lon="-0.1750634417839636">
        <time>2020-08-22T08:47:54Z</time>
      </trkpt>
      <trkpt lat="38.72657014417785" lon="-0.1763184351381719">
        <time>2020-08-22T08:47:54Z</time>
      </trkpt>
      <trkpt lat="38.72581966911697" lon="-0.1768778403683502">
        <time>2020-08-22T08:47:54Z</time>
      </trkpt>
      <trkpt lat="38.72481102880066" lon="-0.1779558352518185">
        <time>2020-08-22T08:47:54Z</time>
      </trkpt>
      <trkpt lat="38.7248019631133" lon="-0.176513156094531">
        <time>2020-08-22T08:47:54Z</time>
      </trkpt>
      <trkpt lat="38.72355250483834" lon="-0.1771433145176737">
        <time>2020-08-22T08:47:54Z</time>
      </trkpt>
      <trkpt lat="38.72154835327208" lon="-0.1760165706171823">
        <time>2020-08-22T08:47:54Z</time>
      </trkpt>
      <trkpt lat="38.72130391383809" lon="-0.1755459606478482">
        <time>2020-08-22T08:47:54Z</time>
      </trkpt>
      <trkpt lat="38.72112690423442" lon="-0.172678196105962">
        <time>2020-08-22T08:47:54Z</time>
      </trkpt>
      <trkpt lat="38.72024806044087" lon="-0.1716882487290794">
        <time>2020-08-22T08:47:54Z</time>
      </trkpt>
      <trkpt lat="38.7193124804697" lon="-0.1720219696318914">
        <time>2020-08-22T08:47:54Z</time>
      </trkpt>
      <trkpt lat="38.71889376636965" lon="-0.1713432071015297">
        <time>2020-08-22T08:47:54Z</time>
      </trkpt>
      <trkpt lat="38.71994654004141" lon="-0.1701337672094738">
        <time>2020-08-22T08:47:54Z</time>
      </trkpt>
      <trkpt lat="38.72004574637185" lon="-0.1675164635416182">
        <time>2020-08-22T08:47:54Z</time>
      </trkpt>
      <trkpt lat="38.7200100596778" lon="-0.1675819518063093">
        <time>2020-08-22T08:47:54Z</time>
      </trkpt>
      <trkpt lat="38.72009701663243" lon="-0.1663255606997271">
        <time>2020-08-22T08:47:54Z</time>
      </trkpt>
      <trkpt lat="38.71857635726582" lon="-0.1658109907763761">
        <time>2020-08-22T08:47:54Z</time>
      </trkpt>
      <trkpt lat="38.71799757588009" lon="-0.1629853352834076">
        <time>2020-08-22T08:47:54Z</time>
      </trkpt>
      <trkpt lat="38.71857675236047" lon="-0.1615458152401306">
        <time>2020-08-22T08:47:54Z</time>
      </trkpt>
      <trkpt lat="38.71330535502955" lon="-0.1631932011242876">
        <time>2020-08-22T08:47:54Z</time>
      </trkpt>
      <trkpt lat="38.71209108080232" lon="-0.1630950663558062">
        <time>2020-08-22T08:47:54Z</time>
      </trkpt>
      <trkpt lat="38.7108177408147" lon="-0.1611132790721481">
        <time>2020-08-22T08:47:54Z</time>
      </trkpt>
      <trkpt lat="38.70925492008856" lon="-0.1607617774826831">
        <time>2020-08-22T08:47:54Z</time>
      </trkpt>
      <trkpt lat="38.70688894179286" lon="-0.1588886110666954">
        <time>2020-08-22T08:47:54Z</time>
      </trkpt>
      <trkpt lat="38.7062904878937" lon="-0.158135331148973">
        <time>2020-08-22T08:47:54Z</time>
      </trkpt>
      <trkpt lat="38.70529372391749" lon="-0.1599015469674625">
        <time>2020-08-22T08:47:54Z</time>
      </trkpt>
      <trkpt lat="38.70592725731368" lon="-0.1614656307416396">
        <time>2020-08-22T08:47:54Z</time>
      </trkpt>
      <trkpt lat="38.70450402910175" lon="-0.1625373508152661">
        <time>2020-08-22T08:47:54Z</time>
      </trkpt>
      <trkpt lat="38.70548360863409" lon="-0.1635441079410815">
        <time>2020-08-22T08:47:54Z</time>
      </trkpt>
      <trkpt lat="38.70545196065603" lon="-0.1641570754081356">
        <time>2020-08-22T08:47:54Z</time>
      </trkpt>
      <trkpt lat="38.70509698166156" lon="-0.1647015056946188">
        <time>2020-08-22T08:47:54Z</time>
      </trkpt>
      <trkpt lat="38.70336376699422" lon="-0.1640392652991174">
        <time>2020-08-22T08:47:54Z</time>
      </trkpt>
      <trkpt lat="38.70467001974104" lon="-0.1660044323350773">
        <time>2020-08-22T08:47:54Z</time>
      </trkpt>
      <trkpt lat="38.7050887173645" lon="-0.1690116295777389">
        <time>2020-08-22T08:47:54Z</time>
      </trkpt>
      <trkpt lat="38.70522308584736" lon="-0.1706127794275347">
        <time>2020-08-22T08:47:54Z</time>
      </trkpt>
      <trkpt lat="38.70475839798952" lon="-0.1692529087978123">
        <time>2020-08-22T08:47:54Z</time>
      </trkpt>
      <trkpt lat="38.70449802859662" lon="-0.1720442921644738">
        <time>2020-08-22T08:47:54Z</time>
      </trkpt>
      <trkpt lat="38.70273021691975" lon="-0.1728948993199153">
        <time>2020-08-22T08:47:54Z</time>
      </trkpt>
      <trkpt lat="38.70206339819888" lon="-0.1736578883522499">
        <time>2020-08-22T08:47:54Z</time>
      </trkpt>
      <trkpt lat="38.69986138234423" lon="-0.1737501614602543">
        <time>2020-08-22T08:47:54Z</time>
      </trkpt>
      <trkpt lat="38.69990880117817" lon="-0.174322466193978">
        <time>2020-08-22T08:47:54Z</time>
      </trkpt>
      <trkpt lat="38.70056118701159" lon="-0.1750206352727579">
        <time>2020-08-22T08:47:54Z</time>
      </trkpt>
      <trkpt lat="38.70095715118732" lon="-0.1756208490106392">
        <time>2020-08-22T08:47:54Z</time>
      </trkpt>
      <trkpt lat="38.70015839000978" lon="-0.1755868697961271">
        <time>2020-08-22T08:47:54Z</time>
      </trkpt>
      <trkpt lat="38.70034590231835" lon="-0.1765184735515957">
        <time>2020-08-22T08:47:54Z</time>
      </trkpt>
      <trkpt lat="38.69968435833621" lon="-0.1769283002795397">
        <time>2020-08-22T08:47:54Z</time>
      </trkpt>
      <trkpt lat="38.70000214156376" lon="-0.1783199925301104">
        <time>2020-08-22T08:47:54Z</time>
      </trkpt>
      <trkpt lat="38.69970596504271" lon="-0.1799222256069843">
        <time>2020-08-22T08:47:54Z</time>
      </trkpt>
      <trkpt lat="38.69955833794783" lon="-0.1813003393632362">
        <time>2020-08-22T08:47:54Z</time>
      </trkpt>
      <trkpt lat="38.69972425658807" lon="-0.18168366763609">
        <time>2020-08-22T08:47:54Z</time>
      </trkpt>
      <trkpt lat="38.70068664893549" lon="-0.1817751821693514">
        <time>2020-08-22T08:47:54Z</time>
      </trkpt>
      <trkpt lat="38.70115942371011" lon="-0.1822922789708092">
        <time>2020-08-22T08:47:54Z</time>
      </trkpt>
      <trkpt lat="38.70118552914828" lon="-0.182324204530645">
        <time>2020-08-22T08:47:54Z</time>
      </trkpt>
      <trkpt lat="38.70130850968309" lon="-0.1828377760623268">
        <time>2020-08-22T08:47:54Z</time>
      </trkpt>
      <trkpt lat="38.70202099843967" lon="-0.1819809924725413">
        <time>2020-08-22T08:47:54Z</time>
      </trkpt>
      <trkpt lat="38.70206020989887" lon="-0.1824871625170599">
        <time>2020-08-22T08:47:54Z</time>
      </trkpt>
      <trkpt lat="38.70167401399045" lon="-0.1834176815118371">
        <time>2020-08-22T08:47:54Z</time>
      </trkpt>
      <trkpt lat="38.70160062972052" lon="-0.1839953847587472">
        <time>2020-08-22T08:47:54Z</time>
      </trkpt>
      <trkpt lat="38.7025001384272" lon="-0.1875391619763711">
        <time>2020-08-22T08:47:54Z</time>
      </trkpt>
      <trkpt lat="38.70237063250404" lon="-0.1836483413555623">
        <time>2020-08-22T08:47:54Z</time>
      </trkpt>
      <trkpt lat="38.70284884246959" lon="-0.1851873127874137">
        <time>2020-08-22T08:47:54Z</time>
      </trkpt>
      <trkpt lat="38.70329757789216" lon="-0.1859833840798697">
        <time>2020-08-22T08:47:54Z</time>
      </trkpt>
      <trkpt lat="38.70349530712032" lon="-0.187602769617865">
        <time>2020-08-22T08:47:54Z</time>
      </trkpt>
      <trkpt lat="38.70399090640034" lon="-0.1898478737997888">
        <time>2020-08-22T08:47:54Z</time>
      </trkpt>
      <trkpt lat="38.70480111500927" lon="-0.1914269962323945">
        <time>2020-08-22T08:47:54Z</time>
      </trkpt>
      <trkpt lat="38.70442863120211" lon="-0.1935509562401261">
        <time>2020-08-22T08:47:54Z</time>
      </trkpt>
      <trkpt lat="38.70387816742024" lon="-0.1944639048653041">
        <time>2020-08-22T08:47:54Z</time>
      </trkpt>
      <trkpt lat="38.70429192926032" lon="-0.1942375582125333">
        <time>2020-08-22T08:47:54Z</time>
      </trkpt>
      <trkpt lat="38.70422066800992" lon="-0.1945576769619317">
        <time>2020-08-22T08:47:54Z</time>
      </trkpt>
      <trkpt lat="38.70428360002251" lon="-0.1952036051806738">
        <time>2020-08-22T08:47:54Z</time>
      </trkpt>
      <trkpt lat="38.70446161734555" lon="-0.1964736391313504">
        <time>2020-08-22T08:47:54Z</time>
      </trkpt>
      <trkpt lat="38.70451037693087" lon="-0.1968811147255867">
        <time>2020-08-22T08:47:54Z</time>
      </trkpt>
      <trkpt lat="38.70398284743426" lon="-0.1973011322871177">
        <time>2020-08-22T08:47:54Z</time>
      </trkpt>
      <trkpt lat="38.70362308021741" lon="-0.1973530926324141">
        <time>2020-08-22T08:47:54Z</time>
      </trkpt>
      <trkpt lat="38.70361266905702" lon="-0.1985875596969844">
        <time>2020-08-22T08:47:54Z</time>
      </trkpt>
      <trkpt lat="38.70320711829125" lon="-0.1986838826859094">
        <time>2020-08-22T08:47:54Z</time>
      </trkpt>
      <trkpt lat="38.70286406760378" lon="-0.1979129172045835">
        <time>2020-08-22T08:47:54Z</time>
      </trkpt>
      <trkpt lat="38.70221625059654" lon="-0.197187570157118">
        <time>2020-08-22T08:47:54Z</time>
      </trkpt>
      <trkpt lat="38.70196874659556" lon="-0.197218640199267">
        <time>2020-08-22T08:47:54Z</time>
      </trkpt>
      <trkpt lat="38.70229900155183" lon="-0.1977230301654409">
        <time>2020-08-22T08:47:54Z</time>
      </trkpt>
      <trkpt lat="38.70234664603144" lon="-0.1988987921771723">
        <time>2020-08-22T08:47:54Z</time>
      </trkpt>
      <trkpt lat="38.70310141947557" lon="-0.2009774095629369">
        <time>2020-08-22T08:47:54Z</time>
      </trkpt>
      <trkpt lat="38.70308308942882" lon="-0.2017115122006352">
        <time>2020-08-22T08:47:54Z</time>
      </trkpt>
      <trkpt lat="38.70282668969861" lon="-0.2013893919147203">
        <time>2020-08-22T08:47:54Z</time>
      </trkpt>
      <trkpt lat="38.70228020645363" lon="-0.2021755296772576">
        <time>2020-08-22T08:47:54Z</time>
      </trkpt>
      <trkpt lat="38.70180983243074" lon="-0.2017432488497439">
        <time>2020-08-22T08:47:54Z</time>
      </trkpt>
      <trkpt lat="38.70156679676278" lon="-0.2013552541874952">
        <time>2020-08-22T08:47:54Z</time>
      </trkpt>
      <trkpt lat="38.70117592960195" lon="-0.201563004207912">
        <time>2020-08-22T08:47:54Z</time>
      </trkpt>
      <trkpt lat="38.70137471039433" lon="-0.2023226726845961">
        <time>2020-08-22T08:47:54Z</time>
      </trkpt>
      <trkpt lat="38.70114768744361" lon="-0.2023701660439414">
        <time>2020-08-22T08:47:54Z</time>
      </trkpt>
      <trkpt lat="38.70114794387654" lon="-0.2027581905538345">
        <time>2020-08-22T08:47:54Z</time>
      </trkpt>
      <trkpt lat="38.70148922869411" lon="-0.2037845057330667">
        <time>2020-08-22T08:47:54Z</time>
      </trkpt>
      <trkpt lat="38.70110514948754" lon="-0.2034776707621155">
        <time>2020-08-22T08:47:54Z</time>
      </trkpt>
      <trkpt lat="38.70091190097924" lon="-0.2034400490155075">
        <time>2020-08-22T08:47:54Z</time>
      </trkpt>
      <trkpt lat="38.70120795002736" lon="-0.2050698813487517">
        <time>2020-08-22T08:47:54Z</time>
      </trkpt>
      <trkpt lat="38.70077358793334" lon="-0.2040880790678867">
        <time>2020-08-22T08:47:54Z</time>
      </trkpt>
      <trkpt lat="38.70096520189396" lon="-0.2059864440796844">
        <time>2020-08-22T08:47:54Z</time>
      </trkpt>
      <trkpt lat="38.70087715338077" lon="-0.206743017249138">
        <time>2020-08-22T08:47:54Z</time>
      </trkpt>
      <trkpt lat="38.70135467403341" lon="-0.2083487173246201">
        <time>2020-08-22T08:47:54Z</time>
      </trkpt>
      <trkpt lat="38.70076812085331" lon="-0.2087672256774231">
        <time>2020-08-22T08:47:54Z</time>
      </trkpt>
      <trkpt lat="38.70023511252093" lon="-0.2084573916266275">
        <time>2020-08-22T08:47:54Z</time>
      </trkpt>
      <trkpt lat="38.69995172446924" lon="-0.2085250117703619">
        <time>2020-08-22T08:47:54Z</time>
      </trkpt>
      <trkpt lat="38.69923215526751" lon="-0.2092819787347522">
        <time>2020-08-22T08:47:54Z</time>
      </trkpt>
      <trkpt lat="38.6990348016741" lon="-0.2089942230346042">
        <time>2020-08-22T08:47:54Z</time>
      </trkpt>
      <trkpt lat="38.69900924231543" lon="-0.2094246899783447">
        <time>2020-08-22T08:47:54Z</time>
      </trkpt>
      <trkpt lat="38.69956047286862" lon="-0.2097024851352025">
        <time>2020-08-22T08:47:54Z</time>
      </trkpt>
      <trkpt lat="38.69980219487865" lon="-0.2112737628852146">
        <time>2020-08-22T08:47:54Z</time>
      </trkpt>
      <trkpt lat="38.69926142579018" lon="-0.2114668036878375">
        <time>2020-08-22T08:47:54Z</time>
      </trkpt>
      <trkpt lat="38.69879471861668" lon="-0.2110943452828096">
        <time>2020-08-22T08:47:54Z</time>
      </trkpt>
      <trkpt lat="38.69816798901262" lon="-0.2109817926736768">
        <time>2020-08-22T08:47:54Z</time>
      </trkpt>
      <trkpt lat="38.69782139089609" lon="-0.2107462153715012">
        <time>2020-08-22T08:47:54Z</time>
      </trkpt>
      <trkpt lat="38.69757206640634" lon="-0.2106865198606367">
        <time>2020-08-22T08:47:54Z</time>
      </trkpt>
      <trkpt lat="38.69725559979003" lon="-0.2097266952522636">
        <time>2020-08-22T08:47:54Z</time>
      </trkpt>
      <trkpt lat="38.69655081881918" lon="-0.2087237617680515">
        <time>2020-08-22T08:47:54Z</time>
      </trkpt>
      <trkpt lat="38.69625758112064" lon="-0.2082739881888007">
        <time>2020-08-22T08:47:54Z</time>
      </trkpt>
      <trkpt lat="38.69541353136223" lon="-0.2076180456614263">
        <time>2020-08-22T08:47:54Z</time>
      </trkpt>
      <trkpt lat="38.6945139703852" lon="-0.2078447831292773">
        <time>2020-08-22T08:47:54Z</time>
      </trkpt>
      <trkpt lat="38.69398275373516" lon="-0.2076155596411766">
        <time>2020-08-22T08:47:54Z</time>
      </trkpt>
      <trkpt lat="38.69398493715635" lon="-0.2076168157160407"/>
      <trkpt lat="38.69329423916557" lon="-0.2072038350763949"/>
      <trkpt lat="38.69295363956803" lon="-0.2070540928600584"/>
      <trkpt lat="38.69203510237551" lon="-0.2069183687985487"/>
      <trkpt lat="38.69166426431051" lon="-0.2060855096250114"/>
      <trkpt lat="38.69126014367572" lon="-0.2055610399443464"/>
      <trkpt lat="38.69028852233063" lon="-0.2056011067071839"/>
      <trkpt lat="38.68929091111001" lon="-0.206353861045776"/>
      <trkpt lat="38.68868469260735" lon="-0.2062078092851505"/>
      <trkpt lat="38.68809421951972" lon="-0.2069649525874151"/>
      <trkpt lat="38.68845832724823" lon="-0.2073646128383289"/>
      <trkpt lat="38.68875167453812" lon="-0.2082570344971602"/>
      <trkpt lat="38.6882871718043" lon="-0.208564111847428"/>
      <trkpt lat="38.688244330698" lon="-0.2093525721399836"/>
      <trkpt lat="38.68855923393301" lon="-0.2100798168799822"/>
      <trkpt lat="38.68808272594255" lon="-0.2104495802328188"/>
      <trkpt lat="38.68818264329036" lon="-0.2109185120418422"/>
      <trkpt lat="38.68762395389996" lon="-0.2116652446480116"/>
      <trkpt lat="38.68815896636652" lon="-0.2128714321299463"/>
      <trkpt lat="38.68834111239438" lon="-0.213866419778479"/>
      <trkpt lat="38.68846252236786" lon="-0.2150326045398976"/>
      <trkpt lat="38.68932176883186" lon="-0.2163174242070953"/>
      <trkpt lat="38.68899388738073" lon="-0.2176657051082909"/>
      <trkpt lat="38.68862409248808" lon="-0.2171326601429335"/>
      <trkpt lat="38.68700754251496" lon="-0.2161668020015672"/>
      <trkpt lat="38.68618017591356" lon="-0.214568972943463"/>
      <trkpt lat="38.68515613812421" lon="-0.2145252607073123"/>
      <trkpt lat="38.68429046275706" lon="-0.2153596250457424"/>
      <trkpt lat="38.68332938774186" lon="-0.2162042128608477"/>
      <trkpt lat="38.68182540158536" lon="-0.2170033299048446"/>
      <trkpt lat="38.68105704861166" lon="-0.2184312595203541"/>
      <trkpt lat="38.68029215118951" lon="-0.2194921452868992"/>
      <trkpt lat="38.67930355381657" lon="-0.2203056384576851"/>
      <trkpt lat="38.67862702186392" lon="-0.221042026987559"/>
      <trkpt lat="38.67815534568964" lon="-0.2219157688377804"/>
      <trkpt lat="38.67765733944776" lon="-0.2226642552748603"/>
      <trkpt lat="38.67726709871759" lon="-0.2241306849062052"/>
      <trkpt lat="38.67612469201869" lon="-0.2254998223687588"/>
      <trkpt lat="38.67689222587453" lon="-0.2262460368133645"/>
      <trkpt lat="38.67682870462993" lon="-0.2276424549781553"/>
      <trkpt lat="38.67635938112908" lon="-0.2287313126858537"/>
      <trkpt lat="38.67580993813898" lon="-0.2290651250372644"/>
      <trkpt lat="38.67506554325722" lon="-0.2305881912278618"/>
      <trkpt lat="38.67659225037127" lon="-0.2312958150701938"/>
      <trkpt lat="38.6751433602024" lon="-0.2314167520802302"/>
      <trkpt lat="38.67455538075531" lon="-0.2317449398677263"/>
      <trkpt lat="38.67431463772724" lon="-0.2313033277070264"/>
      <trkpt lat="38.67406055394825" lon="-0.2301876775568434"/>
      <trkpt lat="38.67333762047892" lon="-0.233098877786676"/>
      <trkpt lat="38.67290097975774" lon="-0.2333325076653592"/>
      <trkpt lat="38.6722133178525" lon="-0.2330640641048387"/>
      <trkpt lat="38.67179603314818" lon="-0.2335874168515684"/>
      <trkpt lat="38.67152167528896" lon="-0.2339279762155277"/>
      <trkpt lat="38.67201549852119" lon="-0.2345613777723221"/>
      <trkpt lat="38.6715772405139" lon="-0.2347727740922512"/>
      <trkpt lat="38.67066619054032" lon="-0.2347983479213056"/>
      <trkpt lat="38.67059436631774" lon="-0.2352467693292315"/>
      <trkpt lat="38.67129939716914" lon="-0.2358221026692409"/>
      <trkpt lat="38.67103190149049" lon="-0.2367508641446181"/>
      <trkpt lat="38.67043576994344" lon="-0.2367457059201705"/>
      <trkpt lat="38.66940827394434" lon="-0.2354923524108821"/>
      <trkpt lat="38.66934852448335" lon="-0.2375157989106469"/>
      <trkpt lat="38.66786840638798" lon="-0.2356199352160726"/>
      <trkpt lat="38.66788774751292" lon="-0.2342066453358771"/>
      <trkpt lat="38.66638250609521" lon="-0.2341941141507375"/>
      <trkpt lat="38.66672590009337" lon="-0.2352722759001169"/>
      <trkpt lat="38.66569975000866" lon="-0.2369034186504859"/>
      <trkpt lat="38.66478818700725" lon="-0.2383758814280634"/>
      <trkpt lat="38.66481128475917" lon="-0.2380744132144608"/>
      <trkpt lat="38.66464194197791" lon="-0.2381790996591437"/>
      <trkpt lat="38.66457035258684" lon="-0.2382277477167261"/>
      <trkpt lat="38.66368836802709" lon="-0.2383477114873434"/>
      <trkpt lat="38.66306406814947" lon="-0.2379427927473754"/>
      <trkpt lat="38.66270367698204" lon="-0.2374149449940388"/>
      <trkpt lat="38.6620028299215" lon="-0.2373643493293809"/>
      <trkpt lat="38.66186567453327" lon="-0.2382771030145447"/>
      <trkpt lat="38.66184957728258" lon="-0.239443532316721"/>
      <trkpt lat="38.66082749465216" lon="-0.2381244780458713"/>
      <trkpt lat="38.6602507963593" lon="-0.2390117367587419"/>
      <trkpt lat="38.66038138860294" lon="-0.2396738829545852"/>
      <trkpt lat="38.66005559866446" lon="-0.23967497506164"/>
      <trkpt lat="38.65975168605467" lon="-0.2393768726960377"/>
      <trkpt lat="38.65976466855239" lon="-0.2399811022501885"/>
      <trkpt lat="38.65957952593006" lon="-0.2401830299299457"/>
      <trkpt lat="38.65946674521564" lon="-0.2416410042223016"/>
      <trkpt lat="38.65732383080188" lon="-0.2416200431550997"/>
      <trkpt lat="38.65775237839237" lon="-0.2399713379838631"/>
      <trkpt lat="38.65702552535834" lon="-0.2399646571714598"/>
      <trkpt lat="38.65401100431185" lon="-0.2354229096914373"/>
      <trkpt lat="38.65291695757626" lon="-0.2306633981594941"/>
      <trkpt lat="38.65030285743812" lon="-0.2242151038455142"/>
      <trkpt lat="38.6498463678703" lon="-0.2253514261055611"/>
      <trkpt lat="38.64598316923123" lon="-0.226030172341587"/>
      <trkpt lat="38.64453852095707" lon="-0.2277034035945591"/>
      <trkpt lat="38.63901490023876" lon="-0.2278433814912528"/>
      <trkpt lat="38.6411701619123" lon="-0.2289356344134708"/>
      <trkpt lat="38.64137976487095" lon="-0.2300364443475977"/>
      <trkpt lat="38.64282951616634" lon="-0.2305776829358053"/>
      <trkpt lat="38.64213933483401" lon="-0.2324688354303495"/>
      <trkpt lat="38.64077890228546" lon="-0.2346014174301314"/>
      <trkpt lat="38.64024557747885" lon="-0.2363744632772136"/>
      <trkpt lat="38.64014067593396" lon="-0.235570418485197"/>
      <trkpt lat="38.639119138231" lon="-0.2354805314167385"/>
      <trkpt lat="38.63743453608298" lon="-0.2364703143701763"/>
      <trkpt lat="38.63733967580645" lon="-0.2365420544143415"/>
      <trkpt lat="38.63577717807079" lon="-0.2376599672514224"/>
      <trkpt lat="38.63446238822519" lon="-0.2402493573589648"/>
      <trkpt lat="38.63356605453165" lon="-0.2415394084784439"/>
      <trkpt lat="38.63256383552206" lon="-0.2430293434743735"/>
      <trkpt lat="38.63138247180844" lon="-0.2439952256079181"/>
      <trkpt lat="38.63047799116232" lon="-0.2444341409892681"/>
      <trkpt lat="38.63075338702418" lon="-0.2445292804113286"/>
      <trkpt lat="38.630859017865" lon="-0.2450579208421089"/>
      <trkpt lat="38.63017980804323" lon="-0.2459296206836481"/>
      <trkpt lat="38.63095548305299" lon="-0.2505189646074968"/>
      <trkpt lat="38.63095279348452" lon="-0.2503793541484234"/>
      <trkpt lat="38.63033969306476" lon="-0.2522620627330663"/>
      <trkpt lat="38.63027291680302" lon="-0.2523960351629162"/>
      <trkpt lat="38.63043852066196" lon="-0.2532198447641121"/>
      <trkpt lat="38.62984400265685" lon="-0.2542318677942501"/>
      <trkpt lat="38.62967538643922" lon="-0.2548910171728191"/>
      <trkpt lat="38.62977224729185" lon="-0.255677555924958"/>
      <trkpt lat="38.63081568728365" lon="-0.2555362303762643"/>
      <trkpt lat="38.63089437739909" lon="-0.2550470495502377"/>
      <trkpt lat="38.63147534927528" lon="-0.2542794013765903"/>
      <trkpt lat="38.63183733093644" lon="-0.2531766688924642"/>
      <trkpt lat="38.6324135721292" lon="-0.2541498733865166"/>
      <trkpt lat="38.63303343375726" lon="-0.2557460511607013"/>
      <trkpt lat="38.63390698269649" lon="-0.2539444354294407"/>
      <trkpt lat="38.63370255794887" lon="-0.2542823544731676"/>
      <trkpt lat="38.63407336204812" lon="-0.2549259575619311"/>
      <trkpt lat="38.6344459350641" lon="-0.2566265507250509"/>
      <trkpt lat="38.63417548166449" lon="-0.2596308919340629"/>
      <trkpt lat="38.63368514034477" lon="-0.2612512204900219"/>
      <trkpt lat="38.63339295863712" lon="-0.2616563664462956"/>
      <trkpt lat="38.63309128330596" lon="-0.2622916204365067"/>
      <trkpt lat="38.63298857110451" lon="-0.2632371746669204"/>
      <trkpt lat="38.63284227843572" lon="-0.2642725893920495"/>
      <trkpt lat="38.63290894644179" lon="-0.265463504922121"/>
      <trkpt lat="38.63287546241811" lon="-0.2672935210533434"/>
      <trkpt lat="38.63302252878089" lon="-0.2691394137994785"/>
      <trkpt lat="38.63364822044527" lon="-0.2703034782111013"/>
      <trkpt lat="38.63369964610621" lon="-0.2749806644621722"/>
      <trkpt lat="38.63279424644262" lon="-0.2752620705340769"/>
      <trkpt lat="38.63214976963076" lon="-0.27628687864374"/>
      <trkpt lat="38.63229214710199" lon="-0.276994961733642"/>
      <trkpt lat="38.6323063554376" lon="-0.2779670284722147"/>
      <trkpt lat="38.63225423891065" lon="-0.279784595179845"/>
      <trkpt lat="38.63158886247849" lon="-0.280725090215036"/>
      <trkpt lat="38.63175054395128" lon="-0.2826287990396958"/>
      <trkpt lat="38.63078931678081" lon="-0.28430056307583"/>
      <trkpt lat="38.63099884136246" lon="-0.2852204972467098"/>
      <trkpt lat="38.63145950617208" lon="-0.2867470084134016"/>
      <trkpt lat="38.63104998028577" lon="-0.2885690972685584"/>
      <trkpt lat="38.63001056966614" lon="-0.2907769691717221"/>
      <trkpt lat="38.62917296461656" lon="-0.2936080467395197"/>
      <trkpt lat="38.6276880492609" lon="-0.2972397034939211"/>
      <trkpt lat="38.62657185240518" lon="-0.2988544649427249"/>
      <trkpt lat="38.62672698667699" lon="-0.3002663257362814"/>
      <trkpt lat="38.62677124438839" lon="-0.3005430881879678"/>
      <trkpt lat="38.62710621794917" lon="-0.3020387557786564"/>
      <trkpt lat="38.62850185539112" lon="-0.3018151800652136"/>
      <trkpt lat="38.62818379034989" lon="-0.3024322390041689"/>
      <trkpt lat="38.62834453924091" lon="-0.303328296544596"/>
      <trkpt lat="38.62814986396194" lon="-0.3045470787096771"/>
      <trkpt lat="38.62773357795875" lon="-0.3052454021690054"/>
      <trkpt lat="38.62852487759988" lon="-0.3062256056115287"/>
      <trkpt lat="38.62872759658151" lon="-0.3071846201130402"/>
      <trkpt lat="38.62916119335866" lon="-0.3079249887196422"/>
      <trkpt lat="38.62996708196679" lon="-0.3094234810214158"/>
      <trkpt lat="38.62949521837709" lon="-0.3100576288466372"/>
      <trkpt lat="38.62790616288804" lon="-0.3108333413281261"/>
      <trkpt lat="38.62747918996142" lon="-0.3096550268933318"/>
      <trkpt lat="38.62681687951049" lon="-0.308540025417503"/>
      <trkpt lat="38.62582450620253" lon="-0.3071092261801733"/>
      <trkpt lat="38.62556924591425" lon="-0.3057636178264311"/>
      <trkpt lat="38.62489364526523" lon="-0.3030258517759765"/>
      <trkpt lat="38.62513749495243" lon="-0.3014644847555914"/>
      <trkpt lat="38.62391782050327" lon="-0.3002770878453853"/>
      <trkpt lat="38.62301716989391" lon="-0.3009244173572789"/>
      <trkpt lat="38.62257301493286" lon="-0.3028925403632177"/>
      <trkpt lat="38.62158249635691" lon="-0.3030006863915102"/>
      <trkpt lat="38.62174416731518" lon="-0.3041100195651614"/>
      <trkpt lat="38.6214363172349" lon="-0.3051179969251205"/>
      <trkpt lat="38.62149353565557" lon="-0.3064220724287636"/>
      <trkpt lat="38.62137948312339" lon="-0.307374023490502"/>
      <trkpt lat="38.62016138468514" lon="-0.3066149558188336"/>
      <trkpt lat="38.61881040693117" lon="-0.3076130560042944"/>
      <trkpt lat="38.61984648211374" lon="-0.3096200272117888"/>
      <trkpt lat="38.61896226868704" lon="-0.3098074971323761"/>
      <trkpt lat="38.61879317324889" lon="-0.3118104867916893"/>
      <trkpt lat="38.61814128324563" lon="-0.3116787107053964"/>
      <trkpt lat="38.6174084492884" lon="-0.3104313760958866"/>
      <trkpt lat="38.61691232639031" lon="-0.3107975185395306"/>
      <trkpt lat="38.61660853348431" lon="-0.3118677468401321"/>
      <trkpt lat="38.61585210218001" lon="-0.3124255501993844"/>
      <trkpt lat="38.61524697569299" lon="-0.3116738123288321"/>
      <trkpt lat="38.61364245724772" lon="-0.3132746910658257"/>
      <trkpt lat="38.61348767078453" lon="-0.3154234204211803"/>
      <trkpt lat="38.61049626827123" lon="-0.315467429561952"/>
      <trkpt lat="38.60821172269545" lon="-0.3187036505588148"/>
      <trkpt lat="38.60713783246565" lon="-0.319126503043422"/>
      <trkpt lat="38.60761192348891" lon="-0.3204616852888076"/>
      <trkpt lat="38.60739480582392" lon="-0.3218641231663466"/>
      <trkpt lat="38.60817282979382" lon="-0.3217568684034855"/>
      <trkpt lat="38.60802330510306" lon="-0.322981573478589"/>
      <trkpt lat="38.60798077864217" lon="-0.3240528134959608"/>
      <trkpt lat="38.60784130078616" lon="-0.3247006270151487"/>
      <trkpt lat="38.60818482370441" lon="-0.3258410229390218"/>
      <trkpt lat="38.60909724474594" lon="-0.3255555968268564"/>
      <trkpt lat="38.60981275708902" lon="-0.324927873250408"/>
      <trkpt lat="38.60960841085334" lon="-0.3252250515121269"/>
      <trkpt lat="38.60932675837822" lon="-0.327624734722658"/>
      <trkpt lat="38.60863341776829" lon="-0.3278070447061177"/>
      <trkpt lat="38.60856114023191" lon="-0.3289097964733989"/>
      <trkpt lat="38.60898533345105" lon="-0.32891718088641"/>
      <trkpt lat="38.60903152517221" lon="-0.3297135552007835"/>
      <trkpt lat="38.60867309062723" lon="-0.3306011767984063"/>
      <trkpt lat="38.6077772446985" lon="-0.3316448403358085"/>
      <trkpt lat="38.60690404960434" lon="-0.3322136128847675"/>
      <trkpt lat="38.60609194185842" lon="-0.3315738980440774"/>
      <trkpt lat="38.6059302077298" lon="-0.3330781723224285"/>
      <trkpt lat="38.60657638631432" lon="-0.3335107520252067"/>
      <trkpt lat="38.60768317824711" lon="-0.3364670067531716"/>
      <trkpt lat="38.6092055777305" lon="-0.3381597191755614"/>
      <trkpt lat="38.6090477480824" lon="-0.3408968447886729"/>
      <trkpt lat="38.61083651429722" lon="-0.3426604160587621"/>
      <trkpt lat="38.6106184470278" lon="-0.3434380287082839"/>
      <trkpt lat="38.60998982298658" lon="-0.3481592143344281"/>
      <trkpt lat="38.61158522236921" lon="-0.3479461099005188"/>
      <trkpt lat="38.6128483150623" lon="-0.3535885263149463"/>
      <trkpt lat="38.61414279568247" lon="-0.3524003167027245"/>
      <trkpt lat="38.61441961863635" lon="-0.3565909486237595"/>
      <trkpt lat="38.6116294919096" lon="-0.3586076040378405"/>
      <trkpt lat="38.61109894988547" lon="-0.3630584849200269"/>
      <trkpt lat="38.60960960454992" lon="-0.3639844884934473"/>
      <trkpt lat="38.60900606025078" lon="-0.3651717033607127"/>
      <trkpt lat="38.60844996362295" lon="-0.366667016814981"/>
      <trkpt lat="38.60916800771953" lon="-0.3682234875501889"/>
      <trkpt lat="38.6082921033793" lon="-0.3690681286851627"/>
      <trkpt lat="38.60777369395291" lon="-0.3692924207300197"/>
      <trkpt lat="38.60749676170749" lon="-0.3699972809812557"/>
      <trkpt lat="38.60737368809755" lon="-0.3707661503006376"/>
      <trkpt lat="38.60714778672224" lon="-0.3713037891718007"/>
      <trkpt lat="38.60759721107802" lon="-0.3721737420309412"/>
      <trkpt lat="38.60730082429069" lon="-0.3734321332841817"/>
      <trkpt lat="38.60691737486821" lon="-0.3740975213176534"/>
      <trkpt lat="38.60698971468802" lon="-0.3751706299408253"/>
      <trkpt lat="38.60748363930862" lon="-0.3760512490991197"/>
      <trkpt lat="38.60758620083974" lon="-0.3770483920562739"/>
      <trkpt lat="38.60699308474414" lon="-0.3768670095470017"/>
      <trkpt lat="38.60610552800264" lon="-0.3779580267667093"/>
      <trkpt lat="38.60639381929231" lon="-0.3783586360155833"/>
      <trkpt lat="38.60699492248433" lon="-0.379824966535649"/>
      <trkpt lat="38.60549667714652" lon="-0.3831224623254315"/>
      <trkpt lat="38.60497458053015" lon="-0.3862493238723985"/>
      <trkpt lat="38.60582380242565" lon="-0.3867977903516517"/>
      <trkpt lat="38.60649476453513" lon="-0.3865754773370045"/>
      <trkpt lat="38.60651276893643" lon="-0.3872452102431978"/>
      <trkpt lat="38.60678622613069" lon="-0.3877749242322803"/>
      <trkpt lat="38.60616663430224" lon="-0.3889761252771617"/>
      <trkpt lat="38.60598619515897" lon="-0.3899834904678956"/>
      <trkpt lat="38.60569333394206" lon="-0.3901984189202412"/>
      <trkpt lat="38.6040733410967" lon="-0.3931403011205981"/>
      <trkpt lat="38.60477047463382" lon="-0.3942037614997063"/>
      <trkpt lat="38.60559095683151" lon="-0.3943982812767022"/>
      <trkpt lat="38.60626947486547" lon="-0.3945263140035127"/>
      <trkpt lat="38.60693456577732" lon="-0.3939423946794196"/>
      <trkpt lat="38.6076351406406" lon="-0.3944584823437436"/>
      <trkpt lat="38.60754131796451" lon="-0.395770537017861"/>
      <trkpt lat="38.60750299056629" lon="-0.3977218212699385"/>
      <trkpt lat="38.60661228456847" lon="-0.3988861763502005"/>
      <trkpt lat="38.60654541054335" lon="-0.4012332614794412"/>
      <trkpt lat="38.60589068130395" lon="-0.4018700649186113"/>
      <trkpt lat="38.60563900824246" lon="-0.4040072487341018"/>
      <trkpt lat="38.60497335538172" lon="-0.4076892825767842"/>
      <trkpt lat="38.60452405456115" lon="-0.4080025811495491"/>
      <trkpt lat="38.60299150430914" lon="-0.4107824103155344"/>
      <trkpt lat="38.60294841273373" lon="-0.4116185297594954"/>
      <trkpt lat="38.60175653476629" lon="-0.4126802019859277"/>
      <trkpt lat="38.60199201742619" lon="-0.4134246854074086"/>
      <trkpt lat="38.60296931632376" lon="-0.4140330849066187"/>
      <trkpt lat="38.60332060727126" lon="-0.4163109657146558"/>
      <trkpt lat="38.60320461146777" lon="-0.4170145511694034"/>
      <trkpt lat="38.60307078863046" lon="-0.417918544218191"/>
      <trkpt lat="38.6034642826145" lon="-0.4182619751875238"/>
      <trkpt lat="38.60482920763177" lon="-0.4185446307699836"/>
      <trkpt lat="38.60591046997079" lon="-0.4190012359766881"/>
      <trkpt lat="38.6068309496707" lon="-0.4197749777649684"/>
      <trkpt lat="38.60776556728302" lon="-0.4200279250543426"/>
      <trkpt lat="38.60776537397514" lon="-0.4206727453197756"/>
      <trkpt lat="38.60748030247517" lon="-0.4212754764689863"/>
      <trkpt lat="38.60757296549762" lon="-0.4220086848603877"/>
      <trkpt lat="38.60695132987409" lon="-0.4228245975700828"/>
      <trkpt lat="38.60742310707878" lon="-0.4241456117596198"/>
      <trkpt lat="38.60764363865179" lon="-0.4269046956240585"/>
      <trkpt lat="38.60822048985375" lon="-0.4297602672686129"/>
      <trkpt lat="38.60910850331967" lon="-0.4312770059204674"/>
      <trkpt lat="38.60845708824834" lon="-0.431437260677342"/>
      <trkpt lat="38.61102398997022" lon="-0.4390072211309015"/>
      <trkpt lat="38.6095837577739" lon="-0.4390548097412039"/>
      <trkpt lat="38.60745718917018" lon="-0.4434216402632485"/>
      <trkpt lat="38.60650280783179" lon="-0.4430390011381036"/>
      <trkpt lat="38.60630204746214" lon="-0.4438674760639161"/>
      <trkpt lat="38.60681199942771" lon="-0.4443281666839483"/>
      <trkpt lat="38.6078735338584" lon="-0.4454406355410223"/>
      <trkpt lat="38.60957868232948" lon="-0.4467713603322521"/>
      <trkpt lat="38.60896872518314" lon="-0.447853307536461"/>
      <trkpt lat="38.60838071892849" lon="-0.4487278611090217"/>
      <trkpt lat="38.60751534880923" lon="-0.4499422021551303"/>
      <trkpt lat="38.60431077586858" lon="-0.4515158538078468"/>
      <trkpt lat="38.60469711717434" lon="-0.4521727316958501"/>
      <trkpt lat="38.60355507211884" lon="-0.4524636873263588"/>
      <trkpt lat="38.60131255701513" lon="-0.4555441110674052"/>
      <trkpt lat="38.59945270272271" lon="-0.4566618986083326"/>
      <trkpt lat="38.60006134222437" lon="-0.457461815567014"/>
      <trkpt lat="38.60004457680883" lon="-0.458551875257136"/>
      <trkpt lat="38.60016435141684" lon="-0.4597552216014156"/>
      <trkpt lat="38.59975305512427" lon="-0.4618567502697613"/>
      <trkpt lat="38.60004951899398" lon="-0.4628414270739856"/>
      <trkpt lat="38.59874181462887" lon="-0.4624692871137481"/>
      <trkpt lat="38.59846480783886" lon="-0.4647138698043618"/>
      <trkpt lat="38.59907916096216" lon="-0.4659740404102575"/>
      <trkpt lat="38.59843586606004" lon="-0.4664498994101418"/>
      <trkpt lat="38.59734734726435" lon="-0.4673873353291524"/>
      <trkpt lat="38.59756368458736" lon="-0.4679261669178802"/>
      <trkpt lat="38.59627353862093" lon="-0.4680509941865518"/>
      <trkpt lat="38.59613370081335" lon="-0.4687862592144443"/>
      <trkpt lat="38.5966053372499" lon="-0.4699287993858969"/>
      <trkpt lat="38.59768034034667" lon="-0.4706268560803151"/>
      <trkpt lat="38.59701496153431" lon="-0.4709359581600769"/>
      <trkpt lat="38.59630800303047" lon="-0.4721894268093729"/>
      <trkpt lat="38.59717366566837" lon="-0.4741960925200495"/>
      <trkpt lat="38.59748856235385" lon="-0.4747338501678811"/>
      <trkpt lat="38.59697815047849" lon="-0.4759578422159672"/>
      <trkpt lat="38.59736539057038" lon="-0.4765647244388627"/>
      <trkpt lat="38.59875162258506" lon="-0.4769872957281629"/>
      <trkpt lat="38.59855696978684" lon="-0.4774353966169076"/>
      <trkpt lat="38.59771331077576" lon="-0.477744450529709"/>
      <trkpt lat="38.5979540766737" lon="-0.4788904893958856"/>
      <trkpt lat="38.59760727226209" lon="-0.4795555512819583"/>
      <trkpt lat="38.59776067051232" lon="-0.4809569568358507"/>
      <trkpt lat="38.59655774296113" lon="-0.4820699357363323"/>
      <trkpt lat="38.59667996655696" lon="-0.4827345873296252"/>
      <trkpt lat="38.59595234439536" lon="-0.4835407212811771"/>
      <trkpt lat="38.59416542184298" lon="-0.4857836262146875"/>
      <trkpt lat="38.59403002142377" lon="-0.4872591219718325"/>
      <trkpt lat="38.59329199335052" lon="-0.4877243165381406"/>
      <trkpt lat="38.59313348608674" lon="-0.4884828549615039"/>
      <trkpt lat="38.59120817398147" lon="-0.4924987892193633"/>
      <trkpt lat="38.59062838373823" lon="-0.4933977366918441"/>
      <trkpt lat="38.58960175547314" lon="-0.493835533686231"/>
      <trkpt lat="38.58894939482083" lon="-0.4950841874791334"/>
      <trkpt lat="38.58663271730114" lon="-0.4969392487268065"/>
      <trkpt lat="38.58534523123337" lon="-0.4985672797193041"/>
      <trkpt lat="38.58176840350774" lon="-0.5009756404168642"/>
      <trkpt lat="38.58095690648026" lon="-0.5015466392241907"/>
      <trkpt lat="38.58007863642831" lon="-0.5021198499711987"/>
      <trkpt lat="38.57905153159551" lon="-0.5032913110047166"/>
      <trkpt lat="38.57832609322639" lon="-0.5039541109976864"/>
      <trkpt lat="38.57764288458743" lon="-0.5055087988945273"/>
      <trkpt lat="38.57636120639669" lon="-0.5075798923143315"/>
      <trkpt lat="38.57474605433343" lon="-0.5101705126685385"/>
      <trkpt lat="38.57330645012308" lon="-0.5126004953477437"/>
      <trkpt lat="38.57359093022716" lon="-0.5133203492527383"/>
      <trkpt lat="38.57419184786003" lon="-0.5127240091279872"/>
      <trkpt lat="38.57356406216145" lon="-0.516793083398307"/>
      <trkpt lat="38.57173021093932" lon="-0.5184099363827555"/>
      <trkpt lat="38.57214111189381" lon="-0.5196282666444518"/>
      <trkpt lat="38.57529118687093" lon="-0.5157933776896617"/>
      <trkpt lat="38.57553945109186" lon="-0.5179071027218662"/>
      <trkpt lat="38.57577836747695" lon="-0.5181025050123944"/>
      <trkpt lat="38.57621079348905" lon="-0.519017748345636"/>
      <trkpt lat="38.57627012794971" lon="-0.5198325124315151"/>
      <trkpt lat="38.57685476529618" lon="-0.5195753667385661"/>
      <trkpt lat="38.57780462225632" lon="-0.5200663884690315"/>
      <trkpt lat="38.57817959870476" lon="-0.5194960525080128"/>
      <trkpt lat="38.57858506011219" lon="-0.5174579805384527"/>
      <trkpt lat="38.57908221346543" lon="-0.5181268836013619"/>
      <trkpt lat="38.57914326695096" lon="-0.5184127389335069"/>
      <trkpt lat="38.57915738808434" lon="-0.5194590561994961"/>
      <trkpt lat="38.57922529207174" lon="-0.5198640541819866"/>
      <trkpt lat="38.57966639990788" lon="-0.5194986105489918"/>
      <trkpt lat="38.57978542516808" lon="-0.5197018299297451"/>
      <trkpt lat="38.57971071187745" lon="-0.5207059665159353"/>
      <trkpt lat="38.58039962815868" lon="-0.5202161100661418"/>
      <trkpt lat="38.58110835416142" lon="-0.5202611290643411"/>
      <trkpt lat="38.58234706397833" lon="-0.5208194453569492"/>
      <trkpt lat="38.58262945506949" lon="-0.5216615777091016"/>
      <trkpt lat="38.58311151591368" lon="-0.5219424461101185"/>
      <trkpt lat="38.58271068151377" lon="-0.5233730388504287"/>
      <trkpt lat="38.58325291735825" lon="-0.5230185724651149"/>
      <trkpt lat="38.58444281217044" lon="-0.5234573177231994"/>
      <trkpt lat="38.58517692960117" lon="-0.5257596983728519"/>
      <trkpt lat="38.58624136478733" lon="-0.5267538927470583"/>
      <trkpt lat="38.58712942926243" lon="-0.5267006450095091"/>
      <trkpt lat="38.58864689788371" lon="-0.5284802437797453"/>
      <trkpt lat="38.58889959652389" lon="-0.5294612967656842"/>
      <trkpt lat="38.58894589923929" lon="-0.5299447706474136"/>
      <trkpt lat="38.59077049606242" lon="-0.5311405033796923"/>
      <trkpt lat="38.59223614040291" lon="-0.5307653150516167"/>
      <trkpt lat="38.59225862731261" lon="-0.5315070030225566"/>
      <trkpt lat="38.59180345070663" lon="-0.5329598704018002"/>
      <trkpt lat="38.58890283147914" lon="-0.535076758472226"/>
      <trkpt lat="38.58619985501573" lon="-0.5374710089758028"/>
      <trkpt lat="38.5873525107088" lon="-0.5396360046679249"/>
      <trkpt lat="38.58910866234582" lon="-0.5451875825768948"/>
      <trkpt lat="38.58888417194131" lon="-0.5458791519318074"/>
      <trkpt lat="38.5892126604428" lon="-0.5482119984967504"/>
      <trkpt lat="38.58855584700252" lon="-0.548567867997618"/>
      <trkpt lat="38.58716788646135" lon="-0.5477182639745837"/>
      <trkpt lat="38.58651159582018" lon="-0.5492534944235716"/>
      <trkpt lat="38.58609928791139" lon="-0.5492812750705345"/>
      <trkpt lat="38.58620071062726" lon="-0.549864131092741"/>
      <trkpt lat="38.58512748692156" lon="-0.550962671419406"/>
      <trkpt lat="38.58542237933268" lon="-0.5520239287941653"/>
      <trkpt lat="38.58415011842386" lon="-0.5537501352586449"/>
      <trkpt lat="38.58541678965546" lon="-0.5563622559748127"/>
      <trkpt lat="38.58545236919272" lon="-0.5594446175876422"/>
      <trkpt lat="38.58500334254116" lon="-0.5618028899911498"/>
      <trkpt lat="38.5841116319501" lon="-0.5643063484992161"/>
      <trkpt lat="38.58324169577761" lon="-0.5642519303372895"/>
      <trkpt lat="38.5824339459752" lon="-0.5664829870651333"/>
      <trkpt lat="38.58245384478262" lon="-0.5673877399722971"/>
      <trkpt lat="38.58309605743628" lon="-0.569238297227721"/>
      <trkpt lat="38.58277300514948" lon="-0.5708835484132702"/>
      <trkpt lat="38.5827146956943" lon="-0.5730924356956446"/>
      <trkpt lat="38.58238630677723" lon="-0.5741467447116955"/>
      <trkpt lat="38.58249926885865" lon="-0.5753707125793939"/>
      <trkpt lat="38.58227165304466" lon="-0.5763042817590358"/>
      <trkpt lat="38.58182755245038" lon="-0.5790420093402626"/>
      <trkpt lat="38.581228771916" lon="-0.5801988200999364"/>
      <trkpt lat="38.58155246717091" lon="-0.5807618802138304"/>
      <trkpt lat="38.58163064989512" lon="-0.5818778987167117"/>
      <trkpt lat="38.58061437938173" lon="-0.5831500914554466"/>
      <trkpt lat="38.58033533830564" lon="-0.5850874775849813"/>
      <trkpt lat="38.58011459720527" lon="-0.5858438675855249"/>
      <trkpt lat="38.58056019619115" lon="-0.5864199711729601"/>
      <trkpt lat="38.5811933412495" lon="-0.5874821425416799"/>
      <trkpt lat="38.58160784564511" lon="-0.588512629896597"/>
      <trkpt lat="38.58164950219376" lon="-0.590254827328387"/>
      <trkpt lat="38.58223757659437" lon="-0.5915480457679623"/>
      <trkpt lat="38.58213655965498" lon="-0.5955211306334174"/>
      <trkpt lat="38.5822355580109" lon="-0.5971224447054491"/>
      <trkpt lat="38.58195935174257" lon="-0.5976513584146792"/>
      <trkpt lat="38.58298564099127" lon="-0.5979182311988307"/>
      <trkpt lat="38.58419297394202" lon="-0.599453709753025"/>
      <trkpt lat="38.58479187241244" lon="-0.6018612019274117"/>
      <trkpt lat="38.58467106669501" lon="-0.60358731054582"/>
      <trkpt lat="38.58403130643149" lon="-0.6038544153013037"/>
      <trkpt lat="38.58366799870868" lon="-0.6056696860721533"/>
      <trkpt lat="38.58444636416132" lon="-0.6107550073998891"/>
      <trkpt lat="38.58526929422883" lon="-0.6105592013148231"/>
      <trkpt lat="38.58801985589272" lon="-0.611731353303594"/>
      <trkpt lat="38.58968837524163" lon="-0.6147398301078122"/>
      <trkpt lat="38.5910588557487" lon="-0.6178212240261671"/>
      <trkpt lat="38.59302498752948" lon="-0.6163836703273873"/>
      <trkpt lat="38.59297222105464" lon="-0.6157780776571464"/>
      <trkpt lat="38.59475364228625" lon="-0.6136775191768007"/>
      <trkpt lat="38.60240158901165" lon="-0.618722192557668"/>
      <trkpt lat="38.60202953356988" lon="-0.6194911298772954"/>
      <trkpt lat="38.60067008030664" lon="-0.6218907315426059"/>
      <trkpt lat="38.60049288866401" lon="-0.625095644235949"/>
      <trkpt lat="38.59940307864175" lon="-0.6316450835548304"/>
      <trkpt lat="38.59880321087977" lon="-0.6392324440469599"/>
      <trkpt lat="38.59830326640117" lon="-0.6419445844966931"/>
      <trkpt lat="38.59762827266614" lon="-0.6445075898974861"/>
      <trkpt lat="38.59895951077587" lon="-0.6484913470343978"/>
      <trkpt lat="38.60391200386432" lon="-0.6552127548134412"/>
      <trkpt lat="38.60249938996143" lon="-0.6574085560187137"/>
      <trkpt lat="38.60381149462422" lon="-0.6591887741028402"/>
      <trkpt lat="38.60586176466247" lon="-0.6622206181602108"/>
      <trkpt lat="38.60689628330779" lon="-0.6643548191477466"/>
      <trkpt lat="38.60780289450008" lon="-0.6675540872803509"/>
      <trkpt lat="38.60805491820531" lon="-0.6678052067088824"/>
      <trkpt lat="38.60800665435257" lon="-0.6682582814343196"/>
      <trkpt lat="38.6064093773325" lon="-0.6686248803375339"/>
      <trkpt lat="38.60645953898766" lon="-0.672787712845907"/>
      <trkpt lat="38.60436066317809" lon="-0.6739956355790344"/>
      <trkpt lat="38.60383765328201" lon="-0.6762534980535306"/>
      <trkpt lat="38.60398123949524" lon="-0.6772704272327756"/>
      <trkpt lat="38.60349693003666" lon="-0.6781734262867767"/>
      <trkpt lat="38.60304073201156" lon="-0.6802754871535277"/>
      <trkpt lat="38.60273183271896" lon="-0.6823967064336345"/>
      <trkpt lat="38.6006749013021" lon="-0.6846845922026612"/>
      <trkpt lat="38.60114909930102" lon="-0.6867892847047719"/>
      <trkpt lat="38.60128787487857" lon="-0.6889318541788914"/>
      <trkpt lat="38.60161432437237" lon="-0.6903997236654913"/>
      <trkpt lat="38.60337426102339" lon="-0.6977987119516671"/>
      <trkpt lat="38.60269236384401" lon="-0.7013781776369221"/>
      <trkpt lat="38.60067482530069" lon="-0.706091240868929"/>
      <trkpt lat="38.59875209652707" lon="-0.7089917021703751"/>
      <trkpt lat="38.59594738572097" lon="-0.7123729314648675"/>
      <trkpt lat="38.59499559515267" lon="-0.7141264276092629"/>
      <trkpt lat="38.5942531340804" lon="-0.7137945786296174"/>
      <trkpt lat="38.59206060446464" lon="-0.7131517156694622"/>
      <trkpt lat="38.58980466626625" lon="-0.7153822860105752"/>
      <trkpt lat="38.58815478537462" lon="-0.7164082359041657"/>
      <trkpt lat="38.58523306741608" lon="-0.7174808820933165"/>
      <trkpt lat="38.5840387682276" lon="-0.7180488900883253"/>
      <trkpt lat="38.58507173473996" lon="-0.7189971258446304"/>
      <trkpt lat="38.58610054421452" lon="-0.7208854999020742"/>
      <trkpt lat="38.58558416028665" lon="-0.723937559805512"/>
      <trkpt lat="38.58425622300365" lon="-0.7251875748577497"/>
      <trkpt lat="38.58163114295321" lon="-0.7248257154284088"/>
      <trkpt lat="38.57948955457468" lon="-0.7237127165233392"/>
      <trkpt lat="38.57846244543268" lon="-0.7244449850862655"/>
      <trkpt lat="38.57799792540069" lon="-0.725707293736193"/>
      <trkpt lat="38.57763288327983" lon="-0.7287191831054218"/>
      <trkpt lat="38.57703733435125" lon="-0.7301431560762295"/>
      <trkpt lat="38.57696402578841" lon="-0.732073950321086"/>
      <trkpt lat="38.57680119529112" lon="-0.7341087636489196"/>
      <trkpt lat="38.57628896042097" lon="-0.7346160633095988"/>
      <trkpt lat="38.5751068414098" lon="-0.7369000500063205"/>
      <trkpt lat="38.57356751747982" lon="-0.7370967480932089"/>
      <trkpt lat="38.57307202996873" lon="-0.7384123565091971"/>
      <trkpt lat="38.57346266568133" lon="-0.7403714890435587"/>
      <trkpt lat="38.57229046845502" lon="-0.7410137769979608"/>
      <trkpt lat="38.5716392344934" lon="-0.7421239719096429"/>
      <trkpt lat="38.57152478023512" lon="-0.7431671181802357"/>
      <trkpt lat="38.57113177527759" lon="-0.7435763181607258"/>
      <trkpt lat="38.57063178814937" lon="-0.7442016695885467"/>
      <trkpt lat="38.56995870995625" lon="-0.744245038629705"/>
      <trkpt lat="38.56990700005075" lon="-0.7457411197590769"/>
      <trkpt lat="38.5693440156135" lon="-0.746669086134778"/>
      <trkpt lat="38.56971253302225" lon="-0.7476705686578489"/>
      <trkpt lat="38.56955731499633" lon="-0.7483843692302883"/>
      <trkpt lat="38.56908955877967" lon="-0.7494350622830304"/>
      <trkpt lat="38.56943977077113" lon="-0.7501103512415119"/>
      <trkpt lat="38.57017060024596" lon="-0.7507556047368968"/>
      <trkpt lat="38.57075306140279" lon="-0.7506524303056883"/>
      <trkpt lat="38.57117504534541" lon="-0.7512880442315706"/>
      <trkpt lat="38.57086334775637" lon="-0.7524716224650119"/>
      <trkpt lat="38.5704582768254" lon="-0.7526246184450769"/>
      <trkpt lat="38.57082500852626" lon="-0.7536450423878105"/>
      <trkpt lat="38.57013366811614" lon="-0.7554535178697486"/>
      <trkpt lat="38.56898735297485" lon="-0.7566965358641931"/>
      <trkpt lat="38.56851527349415" lon="-0.7567902673904936"/>
      <trkpt lat="38.56862876415153" lon="-0.7573989872947462"/>
      <trkpt lat="38.56851718654094" lon="-0.7578643823299658"/>
      <trkpt lat="38.56806140995692" lon="-0.7581870091908427"/>
      <trkpt lat="38.56792576005523" lon="-0.7587286419228079"/>
      <trkpt lat="38.5681949934318" lon="-0.7590960078455"/>
      <trkpt lat="38.56842249230338" lon="-0.7604761996898635"/>
      <trkpt lat="38.56842506583541" lon="-0.7610440539591601"/>
      <trkpt lat="38.56862091653795" lon="-0.7621707055667881"/>
      <trkpt lat="38.56856384146636" lon="-0.7634808066296628"/>
      <trkpt lat="38.56814446744561" lon="-0.7642302553162228"/>
      <trkpt lat="38.56835090671174" lon="-0.7660440841615435"/>
      <trkpt lat="38.57010618184142" lon="-0.7699863446918742"/>
      <trkpt lat="38.56741107201574" lon="-0.7692814822337735"/>
      <trkpt lat="38.5672215133967" lon="-0.7701695329687119"/>
      <trkpt lat="38.56698586789072" lon="-0.7703599072628409"/>
      <trkpt lat="38.56693160218181" lon="-0.7721398094952425"/>
      <trkpt lat="38.56646354363559" lon="-0.7743764278270737"/>
      <trkpt lat="38.56597548159444" lon="-0.7762973525122607"/>
      <trkpt lat="38.56548932959861" lon="-0.7791357572109803"/>
      <trkpt lat="38.56800748680275" lon="-0.7784361797856709"/>
      <trkpt lat="38.56900215846753" lon="-0.7801035468030459"/>
      <trkpt lat="38.56938688130298" lon="-0.7801273025771038"/>
      <trkpt lat="38.57198196063145" lon="-0.7816254135206224"/>
      <trkpt lat="38.57204742782665" lon="-0.782346959445811"/>
      <trkpt lat="38.57261616829864" lon="-0.7824096167756056"/>
      <trkpt lat="38.57301177644491" lon="-0.7831843599834931"/>
      <trkpt lat="38.57363062240475" lon="-0.7829405580529691"/>
      <trkpt lat="38.57402335865061" lon="-0.7833066078527406"/>
      <trkpt lat="38.57310209402289" lon="-0.7850429726786423"/>
      <trkpt lat="38.57266799590728" lon="-0.7870071255009792"/>
      <trkpt lat="38.57208149339898" lon="-0.7879069474004508"/>
      <trkpt lat="38.57219512943606" lon="-0.7888157944175556"/>
      <trkpt lat="38.5720301514984" lon="-0.7903345957323005"/>
      <trkpt lat="38.57244667162786" lon="-0.7924071145158218"/>
      <trkpt lat="38.57349479759432" lon="-0.7935840835436003"/>
      <trkpt lat="38.57433414231505" lon="-0.7947540245107254"/>
      <trkpt lat="38.57543015497788" lon="-0.7963759347691834"/>
      <trkpt lat="38.57637378390589" lon="-0.7973042026432309"/>
      <trkpt lat="38.57584545338867" lon="-0.7980715200972666"/>
      <trkpt lat="38.57547965644358" lon="-0.7996173591451938"/>
      <trkpt lat="38.57445279809274" lon="-0.8010543982222684"/>
      <trkpt lat="38.57270030687139" lon="-0.8034241006378229"/>
      <trkpt lat="38.57222646512579" lon="-0.8048948697848146"/>
      <trkpt lat="38.57138271922734" lon="-0.8059322385458667"/>
      <trkpt lat="38.57069941812604" lon="-0.8080439648721105"/>
      <trkpt lat="38.57034563282974" lon="-0.8115232444981768"/>
      <trkpt lat="38.57051765031033" lon="-0.8132265952341766"/>
      <trkpt lat="38.57096823078365" lon="-0.8162103928962749"/>
      <trkpt lat="38.57084541183381" lon="-0.8176196820062853"/>
      <trkpt lat="38.5697641103642" lon="-0.8204778150928982"/>
      <trkpt lat="38.56952239749747" lon="-0.8230595506487182"/>
      <trkpt lat="38.57050066817548" lon="-0.8245690005149575"/>
      <trkpt lat="38.57071989959092" lon="-0.8256455934293849"/>
      <trkpt lat="38.57139303105107" lon="-0.8276008721549444"/>
      <trkpt lat="38.57085421393626" lon="-0.8281280664752733"/>
      <trkpt lat="38.57096299019977" lon="-0.828881130521445"/>
      <trkpt lat="38.57076297813847" lon="-0.8305641030371835"/>
      <trkpt lat="38.57092178322956" lon="-0.8316885460618451"/>
      <trkpt lat="38.57098378308051" lon="-0.8348442136084477"/>
      <trkpt lat="38.57161033582908" lon="-0.8378086819745423"/>
      <trkpt lat="38.57366680305416" lon="-0.83929944852146"/>
      <trkpt lat="38.5742991884328" lon="-0.8393036527888142"/>
      <trkpt lat="38.57526666859084" lon="-0.8401635991621748"/>
      <trkpt lat="38.57512033642204" lon="-0.8413845882060456"/>
      <trkpt lat="38.57489923018839" lon="-0.8417119454707511"/>
      <trkpt lat="38.5739723635859" lon="-0.8414241801164957"/>
      <trkpt lat="38.57354900223185" lon="-0.8407099543977181"/>
      <trkpt lat="38.57278050164053" lon="-0.842842008976713"/>
      <trkpt lat="38.572171456144" lon="-0.8435330069389624"/>
      <trkpt lat="38.57177947112119" lon="-0.8447423782947316"/>
      <trkpt lat="38.57049427377328" lon="-0.8479660001914513"/>
      <trkpt lat="38.56844350375903" lon="-0.8493477304203745"/>
    </trkseg>
  </trk>
</gpx>
